This demonstration page uses our WeatherBlox Daily Observations layout. Learn more.

Left ArrowRight Arrow

41.86663, -103.66717

Hourly Observations for November 18, 2021

Temp ( °F °C ) Dew Point ( °F °C ) Humidity (%) Winds ( mph kmh ) Pressure ( in mb ) Visibility ( mi km ) Precip ( " mm )
12:53 am 00:53 Clear 13 -10.6 5 -15 70 70 N 5 7 30.49 1033 10 16 0.00 0.00
1:53 am 01:53 Clear 13 -10.6 4 -15.6 67 67 NNW 3 6 30.49 1032 10 16 0.00 0.00
2:53 am 02:53 Clear 11 -11.7 4 -15.6 73 73 N 5 7 30.50 1033 10 16 0.00 0.00
3:53 am 03:53 Clear 11 -11.7 3 -16.1 70 70 NNE 6 9 30.48 1032 10 16 0.00 0.00
4:53 am 04:53 Clear 10 -12.2 3 -16.1 73 73 NNE 3 6 30.51 1033 10 16 0.00 0.00
5:53 am 05:53 Clear 10 -12.2 2 -16.7 69 69 SE 3 6 30.52 1034 10 16 0.00 0.00
6:53 am 06:53 Sunny 12 -11.1 4 -15.6 70 70 E 3 6 30.53 1034 10 16 0.00 0.00
7:53 am 07:53 Sunny 19 -7.2 9 -12.8 65 65 SE 3 6 30.51 1033 10 16 0.00 0.00
8:53 am 08:53 Sunny 24 -4.4 11 -11.7 57 57 ESE 9 15 30.49 1033 10 16 0.00 0.00
9:53 am 09:53 Sunny 31 -0.6 14 -10 49 49 ESE 7 11 30.44 1031 10 16 0.00 0.00
10:53 am 10:53 Sunny 41 5 16 -8.9 36 36 SE 9 15 30.37 1029 10 16 0.00 0.00
11:53 am 11:53 Sunny 47 8.3 17 -8.3 30 30 ESE 12 19 30.30 1026 10 16 0.00 0.00
12:33 pm 12:33 Sunny 51 10.6 9 -12.8 18 18 S 14 22 30.14 1021 10 16 0.00 0.00
12:53 pm 12:53 Sunny 51 10.6 6 -14.4 16 16 S 18 30 30.25 1024 10 16 0.00 0.00
1:53 pm 13:53 Sunny 50 10 7 -13.9 17 17 SSE 13 20 30.22 1023 10 16 0.00 0.00
2:53 pm 14:53 Sunny 53 11.7 3 -16.1 13 13 S 17 28 30.20 1023 10 16 0.00 0.00
3:53 pm 15:53 Sunny 49 9.4 3 -16.1 15 15 SSE 10 17 30.20 1023 10 16 0.00 0.00
4:53 pm 16:53 Clear 38 3.3 5 -15 25 25 ESE 9 15 30.22 1024 10 16 0.00 0.00
5:53 pm 17:53 Clear 33 0.6 7 -13.9 33 33 ESE 12 19 30.22 1023 10 16 0.00 0.00
6:53 pm 18:53 Clear 35 1.7 8 -13.3 32 32 undefined N/A 30.18 1022 10 16 0.00 0.00
7:53 pm 19:53 Clear 33 0.6 10 -12.2 38 38 undefined N/A 30.16 1022 10 16 0.00 0.00
8:53 pm 20:53 Clear 32 0 11 -11.7 41 41 undefined N/A 30.13 1020 10 16 0.00 0.00
9:53 pm 21:53 Clear 32 0 13 -10.6 45 45 undefined N/A 30.08 1019 10 16 0.00 0.00
10:53 pm 22:53 Clear 33 0.6 14 -10 45 45 undefined N/A 30.04 1017 10 16 0.00 0.00
11:53 pm 23:53 Clear 33 0.6 15 -9.4 47 47 undefined N/A 30.01 1016 10 16 0.00 0.00

Powered by AerisWeather